Location: B?dargowo
(53.3916°N, 14.4413°E)
Time: 09:23:39
(UTC+00:00)

Cosmos 2333 - Pass Details

Date: 05 February 2023
Orbit: 828 x 867 km, 70.9° (Epoch: 19 March)

Event Time Altitude Azimuth Distance (km) Brightness Sun altitude
Rises 18:08:08 0° 205° (SSW) 3,366 7.7 -20.4°
Reaches altitude 10° 18:10:33 10° 204° (SSW) 2,440 6.9 -20.7°
Maximum altitude 18:16:09 79° 119° (ESE) 862 4.1 -21.5°
Enters shadow 18:19:21 27° 36° (NE) 1,571 5.3 -22.0°
